Weather History for Bishop, CA

Change the Weather History Date:

Tuesday, November 27, 2012

  Actual Average Record
Temperature  
Mean Temperature 40 °F 41 °F  
Max Temperature 58 °F 57 °F 76 °F (1949)
Min Temperature 21 °F 25 °F 9 °F (1990)
Degree Days  
Heating Degree Days 25 24  
Month to date heating degree days 522 520  
Since 1 July heating degree days 761 827  
Cooling Degree Days 0 0  
Month to date cooling degree days 0 0  
Year to date cooling degree days 1161 1104  
Moisture  
Dew Point 14 °F    
Average Humidity 39    
Maximum Humidity 59    
Minimum Humidity 19    
Precipitation  
Precipitation 0.00 in 0.01 in 0.40 in (1984)
Month to date precipitation T 0.46  
Year to date precipitation 2.67 4.32  
Snow  
Snow 0.00 in 0.00 in 1.50 in (1984)
Month to date snowfall 0.0 0.3  
Since 1 July snowfall 0.0 0.3  
Since 1 September snowfall 0.0 0.3  
Snow Depth 0.00 in    
Sea Level Pressure  
Sea Level Pressure 30.17 in    
Wind  
Wind Speed 4 mph (NNW)    
Max Wind Speed 12 mph    
Max Gust Speed 16 mph    
Visibility 10 miles    
Events      
T = Trace of Precipitation, MM = Missing Value Source: NWS Daily Summary

Daily Weather History Graph

Daily Weather History Graph

Search for Another Location

Airport:

Trip Planner

Search our weather history database for the weather conditions in past years. The results will help you decide how hot, cold, wet, or windy it might be!

Date:

Astronomy

Nov. 27, 2012 Rise Set
Actual Time 6:45 AM PST 4:36 PM PST
Civil Twilight 6:17 AM PST 5:05 PM PST
Nautical Twilight 5:44 AM PST 5:37 PM PST
Astronomical Twilight 5:13 AM PST 6:08 PM PST
Moon 4:11 PM PST (11/27) 5:55 AM PST (11/27)
Length of Visible Light 10h 48m
Length of Day
9h 50m
Waxing Gibbous, 99% of the Moon is Illuminated
Nov 27
Waxing Gibbous
Nov 28
Full
Dec 6
Last Quarter
Dec 13
New
Dec 19
First Quarter

Hourly Weather History & Observations

Time (PST) Temp. Windchill Dew Point Humidity Pressure Visibility Wind Dir Wind Speed Gust Speed Precip Events Conditions
12:56 AM 25.0 °F 18.1 °F 10.0 °F 53% 30.17 in 10.0 mi NNW 5.8 mph - N/A   Clear
1:56 AM 26.1 °F 17.6 °F 9.0 °F 49% 30.18 in 10.0 mi North 8.1 mph - N/A   Clear
2:56 AM 23.0 °F 15.8 °F 8.1 °F 53% 30.18 in 10.0 mi North 5.8 mph - N/A   Clear
3:56 AM 24.8 °F 17.9 °F 10.4 °F 54% 30.21 in 10.0 mi NNW 5.8 mph - N/A   Clear
4:56 AM 23.0 °F 15.8 °F 10.0 °F 58% 30.21 in 10.0 mi NNW 5.8 mph - N/A   Clear
5:56 AM 26.1 °F 19.4 °F 10.9 °F 53% 30.23 in 10.0 mi NW 5.8 mph - N/A   Clear
6:56 AM 23.0 °F 17.0 °F 9.0 °F 55% 30.27 in 10.0 mi North 4.6 mph - N/A   Clear
7:56 AM 33.1 °F 27.7 °F 12.0 °F 42% 30.27 in 10.0 mi NNW 5.8 mph - N/A   Clear
8:56 AM 39.2 °F - 15.8 °F 39% 30.25 in 10.0 mi Calm Calm - N/A   Clear
9:56 AM 50.0 °F - 12.9 °F 23% 30.24 in 10.0 mi Calm Calm - N/A   Clear
10:56 AM 53.1 °F - 12.9 °F 20% 30.20 in 10.0 mi Calm Calm - N/A   Clear
11:56 AM 55.9 °F - 14.0 °F 19% 30.17 in 10.0 mi Calm Calm - N/A   Clear
12:56 PM 57.2 °F - 15.8 °F 20% 30.15 in 10.0 mi Calm Calm - N/A   Clear
1:56 PM 57.0 °F - 16.0 °F 20% 30.11 in 10.0 mi WSW 5.8 mph - N/A   Clear
2:56 PM 57.9 °F - 17.1 °F 20% 30.10 in 10.0 mi ESE 5.8 mph - N/A   Clear
3:56 PM 57.0 °F - 19.0 °F 23% 30.10 in 10.0 mi SE 6.9 mph - N/A   Clear
4:56 PM 55.9 °F - 19.9 °F 25% 30.10 in 10.0 mi South 8.1 mph - N/A   Clear
5:56 PM 53.1 °F - 19.9 °F 27% 30.11 in 10.0 mi SSW 4.6 mph - N/A   Clear
6:56 PM 46.9 °F - 18.0 °F 32% 30.14 in 10.0 mi North 3.5 mph - N/A   Clear
7:56 PM 43.0 °F - 15.1 °F 32% 30.14 in 10.0 mi Calm Calm - N/A   Clear
8:56 PM 39.0 °F - 16.0 °F 39% 30.14 in 10.0 mi Calm Calm - N/A   Clear
9:56 PM 37.0 °F 33.3 °F 17.1 °F 44% 30.12 in 10.0 mi NNW 4.6 mph - N/A   Clear
10:56 PM 37.0 °F 32.4 °F 17.1 °F 44% 30.12 in 10.0 mi WNW 5.8 mph - N/A   Clear
11:56 PM 34.0 °F 28.0 °F 17.1 °F 50% 30.11 in 10.0 mi WNW 6.9 mph - N/A   Clear